Temperature
19 18 19 19 19 19 19 19 19 19 19 19 19 19 19 19 19 19 19 19 19 19 19 19 19 19 19 19 19 19 19 19 19 19 19 19 19 19 19 19 18 18 19
19 19 20 19 19 19 19 19 19 19 19 19 19 19 19 19 19 19 19 19 19 19 19 19 19 19 19 19 19 19 19 19 19 19 19 19 19 19 19 19 19 18 19
19 19 20 19 19 19 19 19 19 19 19 19 19 19 19 19 19 19 19 19 19 19 19 19 19 19 19 19 19 19 19 19 19 19 19 18 18 19 19 19 19 19 19
19 19 19 20 19 19 19 19 19 19 19 19 19 19 19 19 19 19 19 19 19 18 18 18 18 18 18 18 18 19 19 19 19 19 18 18 18 19 19 19 19 19 19
19 19 19 20 19 19 19 19 19 19 19 19 19 19 19 19 19 19 19 19 18 18 18 18 18 18 18 18 18 18 18 18 19 18 18 18 18 19 18 18 19 19 19
19 18 19 20 19 19 19 19 19 19 19 19 19 19 19 19 19 19 18 18 18 18 18 18 18 18 18 18 18 18 18 18 18 18 18 18 18 18 18 18 18 18 19
19 18 19 19 19 19 19 19 19 19 18 18 18 19 18 18 18 18 18 18 18 18 18 18 18 18 18 18 18 18 18 18 18 18 18 18 18 18 18 18 18 18 18
19 18 18 19 19 19 19 19 19 18 18 18 18 18 18 18 18 18 18 18 18 18 18 18 18 18 18 18 18 18 18 18 18 18 18 18 18 18 18 18 18 18 18
19 19 18 18 19 19 19 19 19 18 18 18 18 18 18 18 18 18 18 18 18 17 18 18 18 18 18 18 18 18 18 18 17 17 18 18 18 18 18 18 18 18 18
19 19 18 18 18 18 18 19 18 18 18 18 18 18 18 18 18 18 18 18 18 17 18 18 18 18 18 18 18 18 18 18 17 17 17 17 18 18 18 18 18 18 18
19 19 19 19 18 18 18 18 18 18 18 18 18 18 18 17 17 17 17 18 18 17 18 18 18 18 18 18 18 18 18 17 17 17 17 18 18 18 18 18 18 18 18
19 19 19 19 18 18 18 18 18 18 18 18 17 17 17 17 17 17 17 18 18 18 18 18 18 18 18 17 17 18 18 17 18 17 17 18 18 18 18 18 18 18 18
20 19 19 19 19 18 18 18 18 18 18 17 17 17 17 17 17 17 17 17 17 17 17 17 17 17 18 17 18 18 17 18 18 17 17 18 18 18 18 18 18 18 17
20 20 19 19 19 18 18 18 18 18 18 18 17 17 17 17 17 17 17 17 16 16 16 17 17 17 17 18 18 18 17 17 17 17 17 17 17 17 18 18 18 18 17
20 20 19 19 19 19 18 18 18 18 18 18 17 17 17 17 17 17 17 17 17 17 16 16 17 17 17 17 17 17 17 17 17 16 16 17 17 17 17 17 17 17 17
21 21 20 19 19 19 18 18 18 18 18 18 17 17 17 17 17 17 17 17 17 17 17 17 17 17 17 17 17 17 17 17 17 16 16 16 17 17 17 17 17 17 17
22 21 20 19 19 19 19 18 18 18 18 18 17 18 18 17 17 17 17 17 17 17 17 17 17 17 17 17 17 17 17 16 16 16 16 16 16 16 16 16 17 17 17
22 22 21 20 19 19 19 18 18 18 18 18 18 17 18 18 17 17 17 17 17 17 17 17 17 17 17 17 17 17 17 16 16 16 16 16 16 16 16 16 16 16 17
22 21 21 20 20 19 19 18 18 18 18 18 18 18 17 18 17 17 17 17 17 17 17 17 17 17 17 17 17 16 17 16 16 16 16 16 16 16 16 16 16 17 17
21 21 21 21 20 20 19 19 18 18 18 18 18 18 17 17 17 17 17 17 17 17 16 16 16 16 17 16 17 16 16 16 16 16 16 16 16 16 15 15 15 16 17
21 21 21 21 20 20 20 19 19 19 18 18 18 18 18 17 17 17 17 17 17 17 16 16 16 16 16 16 16 16 16 16 17 16 16 16 16 16 16 15 15 15 16
21 21 21 21 21 20 20 20 20 19 19 19 19 18 18 18 18 17 17 17 17 17 16 16 16 16 16 16 16 16 16 17 16 16 16 16 16 16 16 15 15 15 15
20 21 21 21 21 21 20 20 20 19 19 18 18 18 18 18 18 18 17 17 17 17 16 16 16 16 16 16 16 16 16 17 17 17 16 16 16 16 16 16 16 15 15
19 20 20 20 20 20 20 19 19 19 18 18 18 18 18 18 18 18 17 17 17 17 17 16 16 16 16 16 16 16 16 16 16 17 16 16 16 16 16 15 15 15 15
18 19 19 19 19 19 19 19 19 18 18 17 17 17 17 18 18 18 17 17 17 17 17 16 16 16 16 16 16 15 15 15 16 16 16 16 16 16 16 15 15 15 15
17 17 18 18 18 18 18 18 17 17 17 17 17 17 17 17 17 17 17 17 17 16 16 16 16 16 16 16 15 15 15 15 15 15 15 16 16 16 16 15 15 15 15
Wind_Speed
12 15 16 15 15 15 15 14 13 13 12 12 12 12 11 10 10 9 9 8 8 8 7 8 8 7 7 7 7 7 7 7 7 6 5 5 4 3 3 3 3 4 6
15 16 17 16 15 15 15 14 13 13 12 12 12 11 11 10 9 9 8 8 8 7 7 7 7 7 7 7 7 7 8 8 7 6 5 5 5 4 4 3 3 5 5
17 17 17 16 15 15 14 14 13 13 12 12 12 11 11 10 9 8 8 8 8 7 7 6 7 7 7 6 7 7 8 7 7 6 3 4 6 6 5 5 5 6 6
16 16 16 16 15 15 14 14 13 13 13 12 12 11 11 10 9 8 8 8 8 7 7 7 7 7 6 6 6 7 7 7 7 5 3 4 5 7 5 6 7 8 8
15 15 16 16 15 14 14 13 13 13 13 13 12 11 10 9 9 8 8 8 8 8 8 7 7 7 6 5 5 6 6 7 6 4 4 4 5 6 6 7 7 8 8
15 14 16 15 14 14 13 13 13 13 13 13 13 11 10 9 8 8 8 8 8 8 9 8 8 7 6 5 5 6 6 6 6 3 3 3 5 6 6 6 7 7 8
15 14 16 15 14 13 13 13 13 13 13 13 12 12 10 9 8 7 7 7 7 8 9 9 9 8 8 7 7 7 7 4 3 3 3 3 5 5 5 5 6 7 7
14 14 15 16 14 13 13 13 13 13 13 13 12 12 10 9 8 7 7 7 7 8 8 8 8 8 8 8 8 8 6 1 4 3 3 3 5 3 4 4 5 6 7
13 13 13 16 15 14 13 13 13 13 13 13 12 11 10 9 8 7 7 6 6 7 7 7 7 7 7 7 7 8 7 3 2 3 2 4 4 3 3 4 4 5 5
12 13 12 13 14 14 15 14 14 14 13 13 13 12 11 10 9 7 8 7 6 6 6 6 6 5 6 6 6 7 5 4 3 3 3 6 4 3 4 4 4 4 4
11 12 12 12 12 12 12 14 14 13 13 13 13 12 12 10 10 9 7 7 6 6 6 5 5 5 4 7 6 5 5 2 2 2 4 7 4 3 4 4 4 3 4
13 13 11 11 11 11 10 12 12 13 13 13 12 13 11 8 6 5 11 6 6 7 7 5 5 6 8 6 8 8 3 3 2 2 5 5 3 3 3 4 4 3 3
13 12 11 11 11 10 9 9 8 9 10 11 10 11 8 7 7 6 8 9 8 8 7 7 8 5 4 3 3 3 2 1 1 1 6 4 2 1 2 2 3 3 3
12 12 12 12 11 11 10 8 8 7 7 8 9 11 8 6 6 6 5 6 7 6 4 4 3 4 4 4 3 3 3 1 1 1 5 4 2 1 1 1 1 2 2
12 12 12 13 12 11 9 7 8 8 7 9 8 9 9 7 6 6 6 6 6 6 6 4 4 4 3 2 2 1 1 1 0 0 4 5 3 1 1 2 2 2 2
12 12 12 13 12 11 10 9 8 8 8 8 8 9 10 8 7 6 6 6 6 6 5 5 4 3 3 2 2 1 1 1 1 1 2 5 5 4 2 2 2 2 2
12 12 13 12 13 13 12 11 8 8 9 8 8 10 10 9 8 7 6 7 7 8 7 5 4 3 3 3 3 2 1 1 1 2 2 1 5 7 5 4 4 3 3
12 12 12 11 13 13 11 10 8 8 9 8 9 9 11 11 10 7 6 6 7 8 7 5 4 4 4 4 3 3 2 2 1 2 2 3 3 4 7 7 6 4 3
12 13 14 14 14 13 13 10 9 9 8 8 9 9 10 11 11 9 6 6 8 7 7 6 6 5 5 4 3 3 2 2 2 2 2 2 3 2 4 7 6 6 5
13 15 15 15 15 14 12 10 9 9 8 8 8 9 11 11 11 9 6 8 8 7 7 7 7 5 4 5 5 4 4 3 4 3 2 2 3 2 2 2 3 5 5
14 16 16 16 16 13 11 11 10 9 9 8 8 10 11 12 12 10 7 8 8 8 9 10 8 8 7 6 5 5 6 7 6 4 5 5 4 3 4 4 2 2 4
13 16 18 18 17 15 12 10 9 8 7 7 6 8 11 12 12 10 10 8 9 8 10 10 9 7 6 7 6 5 5 7 7 8 6 6 6 5 5 4 5 4 3
11 14 15 16 16 15 13 8 6 5 4 4 5 6 8 11 11 11 11 10 10 10 9 10 11 10 8 8 8 6 5 6 4 6 8 8 7 6 6 6 6 5 4
11 10 12 12 13 13 13 10 9 5 4 2 2 3 6 8 10 11 11 10 10 9 10 10 11 10 10 9 7 7 6 3 3 3 5 8 9 8 8 6 7 7 6
10 6 5 7 9 10 12 12 9 5 2 1 0 2 4 5 8 9 9 9 9 8 9 9 9 11 10 10 9 8 7 5 6 4 4 4 6 8 9 9 7 8 7
9 4 2 5 7 9 11 11 9 8 5 3 1 2 3 3 5 7 7 8 8 7 8 8 9 11 10 11 10 10 9 8 8 7 7 6 6 6 8 8 8 8 8
Wind_Direction
154 149 143 146 143 141 139 137 134 132 129 128 125 122 119 116 114 111 108 106 103 104 105 108 111 113 116 117 121 132 134 127 127 128 125 117 118 124 119 138 216 150 113
151 148 146 148 147 146 144 142 140 138 135 132 128 125 121 116 112 108 105 102 100 101 103 106 108 110 113 115 121 128 130 127 124 119 121 123 112 111 113 107 359 75 115
149 147 150 150 149 149 149 147 145 142 139 136 133 130 126 122 118 113 106 100 97 95 98 104 109 109 111 117 120 124 126 126 120 119 153 113 107 107 111 108 93 95 103
151 152 152 150 150 150 151 152 150 147 144 141 138 135 132 129 124 118 110 102 96 92 90 95 101 105 106 111 119 125 128 130 131 164 153 99 96 100 104 105 100 97 97
154 154 146 152 153 153 154 155 154 152 150 148 144 141 138 135 130 124 116 107 98 91 86 87 94 99 103 110 119 132 139 142 148 194 104 99 89 100 108 108 105 103 99
158 157 151 157 156 157 158 158 158 157 155 154 151 147 144 142 137 130 124 114 104 93 85 83 85 88 90 95 107 121 132 145 178 139 116 110 104 110 109 114 118 111 105
163 161 157 161 161 162 162 162 162 161 161 160 156 152 149 146 141 135 129 119 109 98 88 82 81 79 79 81 87 98 109 135 156 142 140 112 98 107 118 124 130 121 112
165 165 161 163 167 167 167 167 167 166 165 164 162 158 154 150 145 139 132 123 113 102 92 85 82 78 77 80 85 90 94 151 130 126 112 99 86 111 123 131 130 128 124
168 169 170 170 174 174 173 172 171 171 171 169 166 163 158 152 148 146 140 132 121 111 102 92 86 81 78 82 89 95 91 60 100 102 117 93 93 107 119 127 130 129 128
174 176 178 179 178 178 177 178 177 176 175 173 169 166 161 156 155 154 162 141 136 125 114 104 99 95 89 89 99 112 128 195 75 106 86 85 77 93 106 113 125 133 136
182 184 184 183 183 183 177 172 180 180 179 177 174 169 176 180 169 172 139 137 146 135 124 118 114 118 132 124 115 142 193 147 104 73 75 72 81 98 107 110 116 134 148
186 189 190 190 184 186 182 177 185 183 181 189 183 177 189 180 170 154 123 156 152 143 140 129 143 176 212 160 148 193 171 150 155 103 86 69 80 100 110 117 118 128 147
189 189 195 195 192 189 186 187 186 184 183 191 186 180 188 176 172 175 164 167 169 176 167 153 192 174 172 141 167 169 123 166 109 107 96 71 47 101 114 114 121 138 149
193 194 196 199 195 196 193 191 191 187 187 187 191 188 185 188 190 177 187 174 173 177 168 185 176 157 164 167 162 149 148 199 97 87 94 71 360 279 186 153 145 165 165
195 198 199 200 202 197 197 197 199 197 193 192 190 196 191 190 193 179 186 182 193 177 175 185 194 162 174 146 124 129 100 81 151 92 104 90 46 7 215 180 162 145 166
200 200 197 201 202 202 197 200 202 199 195 201 192 203 197 194 197 187 194 188 192 188 185 192 190 187 199 179 164 112 44 70 93 112 98 121 101 71 73 121 140 137 125
207 205 199 202 203 204 205 203 201 203 198 201 199 207 202 199 199 198 198 192 192 191 192 199 185 206 200 183 180 167 123 73 62 116 110 120 128 107 87 80 87 106 104
220 216 205 201 207 204 205 204 202 203 202 203 201 208 209 205 205 201 201 201 197 194 198 195 208 202 192 195 185 173 165 142 170 100 153 150 134 128 108 82 72 73 85
235 226 217 209 208 205 203 206 207 203 202 206 205 206 212 214 212 205 206 205 197 202 206 207 208 210 202 195 190 192 199 178 168 203 179 144 131 156 129 110 97 71 59
241 233 225 215 212 204 201 205 203 209 206 208 209 209 215 219 222 219 210 213 205 207 213 218 212 216 214 204 209 204 212 214 216 222 217 207 207 173 163 161 175 120 85
247 237 230 220 212 204 196 199 199 205 206 207 211 214 214 221 226 227 224 219 215 218 220 222 217 211 211 209 210 217 218 227 231 212 227 228 217 199 216 197 217 210 153
258 242 234 223 213 204 197 194 197 200 206 208 210 216 220 224 226 230 230 225 221 224 227 223 214 215 210 209 216 222 229 217 224 227 222 231 235 202 229 217 202 199 208
276 253 239 226 212 201 187 178 171 171 175 187 205 216 223 227 229 232 237 233 230 227 226 223 216 215 211 213 222 219 229 230 208 213 222 223 232 228 226 226 221 206 196
299 272 249 226 209 193 177 170 169 174 185 206 219 226 228 228 231 233 236 235 233 231 230 224 219 220 216 211 213 227 238 246 217 213 214 228 230 229 230 218 227 222 207
321 296 255 214 195 178 168 162 157 150 151 95 61 246 239 232 234 233 233 232 234 232 232 227 219 220 221 219 211 207 215 226 236 238 237 232 223 228 229 225 219 223 217
352 1 71 130 138 143 145 145 146 140 136 133 191 244 236 226 232 229 226 226 228 229 231 228 224 223 227 229 224 218 215 216 220 223 233 241 244 234 220 221 225 222 220
Height
1528 1529 1529 1532 1533 1535 1537 1538 1540 1541 1542 1543 1544 1545 1546 1546 1547 1547 1548 1548 1549 1549 1550 1550 1551 1551 1552 1552 1552 1553 1553 1553 1554 1554 1554 1554 1554 1554 1554 1554 1554 1555 1553
1527 1529 1530 1532 1534 1536 1537 1539 1540 1542 1543 1544 1545 1546 1547 1547 1548 1549 1549 1549 1550 1550 1550 1551 1551 1552 1552 1553 1553 1554 1554 1555 1555 1555 1555 1555 1555 1555 1555 1555 1555 1555 1554
1527 1529 1531 1533 1535 1537 1538 1540 1541 1543 1544 1545 1546 1547 1547 1548 1549 1550 1550 1551 1551 1551 1551 1551 1552 1552 1553 1553 1554 1554 1555 1555 1556 1556 1556 1557 1557 1556 1556 1556 1556 1556 1555
1528 1530 1532 1534 1536 1538 1539 1541 1542 1543 1544 1546 1547 1548 1548 1549 1550 1551 1551 1551 1552 1552 1552 1552 1552 1553 1553 1554 1555 1555 1556 1556 1557 1557 1559 1558 1558 1558 1557 1557 1557 1557 1557
1529 1532 1532 1534 1536 1538 1540 1541 1543 1544 1545 1546 1548 1549 1549 1550 1551 1551 1552 1552 1552 1552 1552 1553 1553 1553 1554 1555 1555 1556 1557 1557 1558 1558 1559 1558 1558 1558 1559 1558 1558 1558 1558
1530 1532 1533 1535 1537 1539 1540 1542 1543 1545 1546 1547 1548 1549 1550 1551 1551 1552 1552 1552 1553 1553 1553 1553 1554 1554 1555 1555 1556 1556 1557 1558 1558 1559 1559 1559 1559 1559 1559 1559 1559 1559 1559
1531 1533 1533 1535 1537 1539 1540 1542 1543 1545 1547 1548 1549 1550 1551 1551 1552 1552 1553 1553 1553 1553 1554 1554 1554 1555 1555 1556 1557 1557 1558 1558 1559 1559 1559 1559 1559 1559 1560 1560 1560 1560 1560
1531 1533 1534 1535 1537 1539 1541 1542 1544 1545 1547 1548 1549 1550 1551 1552 1552 1553 1553 1553 1553 1554 1554 1555 1555 1556 1556 1557 1557 1558 1559 1559 1560 1560 1560 1560 1560 1560 1560 1560 1561 1561 1561
1531 1533 1535 1535 1537 1538 1540 1542 1543 1545 1547 1548 1549 1550 1551 1552 1552 1553 1553 1553 1553 1554 1554 1555 1556 1557 1557 1558 1558 1559 1559 1559 1561 1561 1561 1560 1560 1560 1561 1561 1561 1561 1561
1531 1533 1535 1536 1538 1539 1540 1541 1543 1545 1546 1548 1549 1550 1551 1552 1552 1553 1553 1553 1554 1554 1555 1555 1556 1557 1558 1559 1559 1559 1560 1560 1561 1562 1562 1561 1560 1560 1561 1561 1561 1562 1562
1531 1533 1535 1537 1538 1540 1541 1541 1542 1544 1545 1547 1548 1549 1550 1552 1553 1554 1554 1553 1554 1554 1555 1556 1557 1558 1558 1559 1559 1560 1561 1562 1562 1562 1561 1560 1560 1560 1561 1561 1561 1562 1562
1530 1532 1534 1536 1537 1539 1540 1541 1542 1543 1544 1546 1548 1549 1551 1553 1554 1555 1553 1553 1554 1554 1555 1556 1557 1558 1559 1561 1560 1560 1562 1562 1563 1562 1561 1560 1560 1560 1561 1561 1562 1562 1562
1529 1531 1533 1535 1537 1538 1539 1540 1541 1543 1544 1546 1548 1549 1551 1552 1553 1554 1554 1554 1555 1555 1558 1556 1558 1560 1561 1561 1562 1563 1562 1563 1563 1562 1561 1559 1560 1560 1560 1561 1562 1562 1562
1528 1530 1531 1533 1536 1537 1539 1540 1541 1542 1543 1546 1547 1549 1550 1551 1553 1554 1554 1556 1556 1557 1557 1559 1560 1560 1561 1562 1562 1562 1562 1562 1562 1561 1560 1559 1559 1559 1560 1560 1561 1561 1562
1527 1528 1530 1532 1534 1536 1537 1538 1540 1541 1543 1545 1546 1548 1549 1550 1552 1552 1554 1554 1556 1557 1557 1558 1560 1561 1561 1561 1561 1561 1562 1561 1561 1560 1560 1558 1558 1559 1559 1560 1560 1561 1561
1526 1528 1529 1530 1532 1534 1536 1537 1539 1541 1541 1544 1545 1546 1548 1549 1550 1551 1553 1553 1555 1556 1557 1558 1559 1560 1561 1561 1561 1561 1560 1560 1560 1560 1559 1559 1558 1558 1559 1559 1560 1560 1560
1525 1527 1528 1529 1531 1533 1535 1536 1538 1539 1541 1542 1543 1545 1547 1548 1549 1550 1552 1553 1554 1555 1557 1558 1559 1559 1560 1560 1560 1560 1560 1559 1559 1560 1559 1559 1559 1558 1558 1559 1559 1559 1559
1524 1525 1527 1527 1529 1531 1533 1534 1536 1537 1539 1540 1541 1543 1545 1547 1548 1548 1549 1551 1552 1554 1555 1556 1557 1558 1559 1560 1560 1560 1560 1559 1559 1559 1559 1559 1559 1559 1558 1558 1558 1559 1559
1520 1522 1524 1525 1527 1529 1530 1532 1534 1535 1536 1537 1539 1540 1542 1544 1546 1547 1547 1549 1550 1552 1553 1555 1556 1557 1558 1558 1559 1559 1560 1559 1559 1559 1560 1560 1559 1559 1559 1558 1558 1558 1558
1515 1518 1520 1521 1523 1526 1527 1529 1531 1532 1533 1534 1536 1537 1539 1541 1543 1544 1545 1546 1548 1549 1551 1553 1554 1555 1556 1557 1558 1558 1558 1559 1559 1559 1559 1559 1559 1559 1559 1558 1559 1558 1557
1510 1512 1514 1517 1518 1521 1522 1524 1526 1528 1530 1531 1533 1534 1536 1537 1539 1541 1542 1544 1545 1546 1548 1550 1551 1552 1553 1555 1556 1556 1557 1557 1558 1557 1558 1558 1559 1558 1557 1557 1558 1558 1558
1504 1506 1508 1510 1513 1515 1517 1520 1522 1525 1527 1529 1530 1532 1533 1535 1536 1538 1539 1540 1542 1543 1544 1545 1546 1548 1549 1551 1553 1554 1554 1555 1553 1555 1555 1556 1557 1557 1557 1557 1557 1556 1557
1497 1498 1501 1503 1506 1508 1511 1514 1517 1521 1524 1525 1527 1529 1531 1532 1533 1534 1536 1537 1538 1539 1540 1541 1542 1544 1545 1547 1549 1550 1551 1551 1552 1553 1553 1553 1554 1555 1555 1556 1556 1556 1555
1492 1492 1494 1496 1498 1502 1504 1507 1511 1515 1519 1522 1524 1526 1527 1529 1530 1531 1532 1533 1534 1535 1536 1537 1538 1539 1541 1542 1543 1545 1547 1548 1549 1549 1550 1550 1551 1552 1553 1553 1553 1554 1554
1487 1487 1487 1489 1492 1495 1498 1501 1505 1509 1514 1518 1521 1523 1524 1525 1526 1528 1528 1529 1530 1531 1532 1533 1534 1535 1536 1537 1538 1540 1542 1543 1545 1546 1547 1548 1548 1549 1550 1550 1551 1552 1552
1486 1484 1483 1485 1487 1491 1494 1496 1500 1504 1508 1513 1516 1520 1522 1523 1523 1524 1525 1526 1527 1528 1529 1530 1530 1531 1532 1533 1534 1535 1537 1538 1539 1541 1542 1544 1545 1546 1546 1547 1548 1548 1549